Regional Weather Roundup
Issued by NWS

Home | Current Version | Previous Version | Graphics & Text | Print | Product List | Glossary On
Versions: 1 2 3 4 5 6 7 8 9 10 11 12 13 14 15 16 17 18 19 20 21 22 23 24 25 26 27 28 29 30 31 32 33 34 35 36 37 38 39 40 41 42 43 44 45 46 47 48 49 50
000
ASUS43 KOAX 192110
RWRNE

WEATHER ROUNDUP FOR NEBRASKA
NATIONAL WEATHER SERVICE OMAHA NE
400 PM CDT SUN OCT 19 2014

NOTES: SATELLITE DATA IS BEING USED TO AUGMENT CLOUD COVER ABOVE
       12000 FEET.
       "FAIR" INDICATES FEW OR NO CLOUDS BELOW 12,000 FEET WITH NO
       SIGNIFICANT WEATHER AND/OR OBSTRUCTIONS TO VISIBILITY.

  * THESE STATIONS DO NOT REPORT WEATHER SUCH AS RAIN...SNOW OR FOG.

NEZ001>004-019>022-054>056-192200-
NEBRASKA PANHANDLE

CITY           SKY/WX    TMP DP  RH WIND       PRES   REMARKS
SCOTTSBLUFF    SUNNY     74  47  38 VRB3      30.05F
ALLIANCE       SUNNY     74  35  24 NE5       30.04F
CHADRON        SUNNY     73  40  30 CALM      30.03F
KIMBALL        SUNNY     71  34  25 E3        30.08S
SIDNEY         SUNNY     73  37  27 E8        30.07S
$$

NEZ057>060-069>072-079>082-192200-
SOUTHWEST NEBRASKA

CITY           SKY/WX    TMP DP  RH WIND       PRES   REMARKS
NORTH PLATTE   SUNNY     78  39  24 E7        29.98F
IMPERIAL       SUNNY     75  41  29 NE10      30.00S
LEXINGTON      SUNNY     72  48  41 CALM      29.98S
MCCOOK         SUNNY     72  47  40 VRB6      29.98F
OGALLALA       SUNNY     80  34  19 E12       30.00S
$$

NEZ005>010-023>029-035>040-094-192200-
NORTH CENTRAL NEBRASKA

CITY           SKY/WX    TMP DP  RH WIND       PRES   REMARKS
VALENTINE      SUNNY     78  35  21 N13G18    29.98S
AINSWORTH      SUNNY     76  35  22 N15       29.98R
BROKEN BOW     SUNNY     79  46  31 N6        29.97S
O`NEILL        SUNNY     77  44  30 N7        29.95S
ORD            SUNNY     75  46  35 CALM      29.94F
THEDFORD       SUNNY     78  39  24 N7        29.99S
$$

NEZ041-046>049-061>064-073>077-083>087-192200-
SOUTH CENTRAL NEBRASKA

CITY           SKY/WX    TMP DP  RH WIND       PRES   REMARKS
GRAND ISLAND   SUNNY     74  48  39 SW14      29.96F
AURORA         SUNNY     74  42  31 W13       29.96S
HASTINGS       MOSUNNY   72  44  36 SW8       29.97F
HEBRON         SUNNY     73  44  36 SW8       29.97F
HOLDREGE       MOSUNNY   71  46  41 CALM      29.98S
KEARNEY *      MOSUNNY   72  48  43 SW10      29.98F
YORK           SUNNY     73  46  38 SW13G18   29.96S
$$

NEZ011>018-030>034-042>045-192200-
NORTHEAST NEBRASKA

CITY           SKY/WX    TMP DP  RH WIND       PRES   REMARKS
NORFOLK        SUNNY     74  47  38 W7        29.92F
ALBION         SUNNY     74  45  36 W5        29.94F
BLAIR          MOSUNNY   73  46  37 SW12G23   29.94S
COLUMBUS *     SUNNY     73  48  40 W10G16    29.95S
FREMONT        SUNNY     74  46  36 SW13G18   29.94R
TEKAMAH        SUNNY     75  47  36 SW16G22   29.91F
WAYNE          SUNNY     74  46  35 W7        29.92S
$$

NEZ050>053-065>068-078-088>093-192200-
SOUTHEAST NEBRASKA

CITY           SKY/WX    TMP DP  RH WIND       PRES   REMARKS
LINCOLN        SUNNY     73  46  38 SW15      29.96F
OMAHA EPPLEY   MOSUNNY   72  46  39 SW14      29.94F
BEATRICE       MOSUNNY   71  49  45 SW12      29.97F
FALLS CITY     MOSUNNY   70  47  43 S9        29.99F
NEBRASKA CITY  MOSUNNY   72  40  31 SW10G18   29.97F
PLATTSMOUTH    MOSUNNY   71  44  36 SW12G17   29.96F
$$

NEZ044-045-051>053-067-192200-
OMAHA AREA

CITY           SKY/WX    TMP DP  RH WIND       PRES   REMARKS
OMAHA EPPLEY   MOSUNNY   72  46  39 SW14      29.94F
BLAIR          MOSUNNY   73  46  37 SW12G23   29.94S
FREMONT        SUNNY     74  46  36 SW13G18   29.94R
MILLARD        MOSUNNY   72  48  43 SW9       29.94S
OFFUTT AFB     PTSUNNY   72  49  43 S13       29.93F
PLATTSMOUTH    MOSUNNY   71  44  36 SW12G17   29.96F
WAHOO          FAIR      74  43  32 SW13G20   29.94F
$$


USA.gov is the U.S. government's official web portal to all federal, state and local government web resources and services.